Regional Weather Roundup
Issued by NWS

Home | Current Version | Previous Version | Graphics & Text | Print | Product List | Glossary Off
Versions: 1 2 3 4 5 6 7 8 9 10 11 12 13 14 15 16 17 18 19 20 21 22 23 24 25 26 27 28 29 30 31 32 33 34 35 36 37 38 39 40 41 42 43 44 45 46 47 48 49 50

000
ASUS43 KTOP 300759
RWRKS

WEATHER ROUNDUP FOR KANSAS
NATIONAL WEATHER SERVICE GOODLAND KS
300 AM CDT THU JUL 30 2015

NOTE:  "FAIR" INDICATES FEW OR NO CLOUDS BELOW 12,000 FEET WITH NO
SIGNIFICANT WEATHER AND/OR OBSTRUCTIONS TO VISIBILITY.

KSZ001>006-013>018-027>032-041>047-300900-
NORTHWEST KANSAS

CITY           SKY/WX    TMP DP  RH WIND       PRES   REMARKS
GOODLAND       PTCLDY    61  57  87 S9        30.29S
HAYS           PTCLDY    66  55  68 E5        30.23R
HILL CITY      CLOUDY    67  62  84 E3        30.25S
RUSSELL        PTCLDY    67  60  78 NE6       30.20S
$$

KSZ061>065-074>080-084>089-300900-
SOUTHWEST KANSAS

CITY           SKY/WX    TMP DP  RH WIND       PRES   REMARKS
DODGE CITY     PTCLDY    69  66  90 E6        30.23F
ELKHART          N/A     67  61  81 E7          N/A
GARDEN CITY    CLOUDY    69  66  90 E7        30.25S
GREAT BEND     CLOUDY    72  66  83 E3        30.20S
LIBERAL        PTCLDY    70  64  83 E7        30.23S
PRATT          CLOUDY    72  68  88 E3        30.20F
$$

KSZ066>073-081>083-090>101-300900-
SOUTHEAST KANSAS

CITY           SKY/WX    TMP DP  RH WIND       PRES   REMARKS
CHANUTE        CLOUDY    76  66  71 E6        30.16S
COFFEYVILLE    MOCLDY    76  66  71 NE5       30.13S
HUTCHINSON     CLOUDY    72  67  84 E6        30.18S
MEDICINE LODGE   N/A     74  69  85 E8        30.16S
PARSONS        CLOUDY    76  67  73 CALM      30.16S
WICHITA INTL   MOCLDY    76  68  76 E10       30.16S
WICHITA JABRA  PTCLDY    71  68  90 E5        30.17S
WINFIELD       PTCLDY    76  68  76 E8        30.16S
$$

KSZ007>012-019>026-033>040-048>060-102>105-300900-
NORTHEAST KANSAS

CITY           SKY/WX    TMP DP  RH WIND       PRES   REMARKS
CONCORDIA      CLEAR     63  61  93 CALM      30.21R
EMPORIA        CLOUDY    70  67  90 E3        30.18S
LAWRENCE       CLEAR     65  63  93 NW3       30.18S
MANHATTAN      CLEAR     65  64  97 CALM      30.18S
OLATHE IND     CLEAR     69  66  90 CALM      30.19S
OLATHE EXE     CLEAR     68  65  90 CALM      30.18R
SALINA         MOCLDY    73  65  75 E3        30.19S
TOPEKA BILLARD CLEAR     67  66  97 CALM      30.18S
TOPEKA FORBES  CLEAR     69  65  86 CALM      30.19R
$$



USA.gov is the U.S. government's official web portal to all federal, state and local government web resources and services.